Regional Weather Roundup
Issued by NWS

Home | Current Version | Previous Version | Text Only | Print | Product List | Glossary Off
Versions: 1 2 3 4 5 6 7 8 9 10 11 12 13 14 15 16 17 18 19 20 21 22 23 24 25 26 27 28 29 30 31 32 33 34 35 36 37 38 39 40 41 42 43 44 45 46 47 48 49 50

000
ASUS43 KLOT 170504
RWRIL

ILLINOIS REGIONAL WEATHER ROUNDUP
NATIONAL WEATHER SERVICE CHICAGO/ROMEOVILLE IL
1200 AM CDT TUE OCT 17 2017

NOTE: "FAIR" INDICATES FEW OR NO CLOUDS BELOW 12,000 FEET WITH NO
SIGNIFICANT WEATHER AND/OR OBSTRUCTIONS TO VISIBILITY.

* THESE STATIONS ARE NOT UNDER NWS QUALITY CONTROL. THEY ALSO MAY NOT
  REPORT WEATHER SUCH AS PRECIPITATION OR FOG.

ILZ001-002-007-009-015-016-024-170600-
NORTHWEST ILLINOIS

CITY           SKY/WX    TMP DP  RH WIND       PRES   REMARKS
MOLINE         CLEAR     54  36  50 SW8       30.19F
STERLING*      CLEAR     49  39  68 CALM        N/A
SAVANNA*       CLEAR     51  41  69 S7        30.18F
$$

ILZ003-004-008-010-011-017-018-170600-
NORTH CENTRAL ILLINOIS

CITY           SKY/WX    TMP DP  RH WIND       PRES   REMARKS
ROCKFORD       CLEAR     46  37  71 S5        30.20F
FREEPORT*      CLEAR     50  37  60 SW10G16   30.19S
ROCHELLE*      CLEAR     42  39  89 S6        30.21S
$$

ILZ005-006-012>014-019>023-170600-
NORTHEAST ILLINOIS

CITY           SKY/WX    TMP DP  RH WIND       PRES   REMARKS
CHICAGO-OHARE  CLEAR     48  39  71 S5        30.20S
CHICAGO-MIDWAY CLEAR     50  40  68 S6        30.21F
AURORA         CLEAR     47  39  74 SW6       30.21F
LANSING*       CLEAR     44  40  83 SW3       30.23S
JOLIET*        CLEAR     43  42  97 CALM      30.22S
WAUKEGAN       CLEAR     48  39  71 SW8       30.17F
DUPAGE AIRPORT CLEAR     47  39  74 SW7       30.20S
KANKAKEE*      CLEAR     46  37  70 SW5       30.25S
WHEELING       CLEAR     48  41  76 CALM      30.21F
NORTHERLY ISL    N/A     53  37  54 S5          N/A
$$

LMZ740>746-170600-
SOUTHERN LAKE MICHIGAN

STATION/POSITION SKY/WX   TEMP    WIND        PRES    VSBY  WAVE
                          AIR SEA DIR/SP/G                  HT/PER
                          (F)     (DEG/KT/KT) (MB)    (MI)  (FT/S)
SOUTHERN BUOY              60 62  260/ 16/ 17 1022.4          2/ 4
WILMETTE HARBOR            54 58  210/ 10/ 12   N/A           1/ 2
BURNHAM HARBOR             53     200/  5/  9   N/A
CALUMET HARBOR             53     210/  5/  7 1022.4S
BURNS HARBOR               52     190/ 10/ 11 1023.7F
MICHIGAN CITY 6N           55 58  210/ 12/ 14   N/A           2/ 2
ST. JOSEPH                 55 58  200/ 10/ 12 1023.6F         2/ 3
$$

ILZ025>027-034>036-040-047-049-050-058-095>099-170600-
WEST-CENTRAL ILLINOIS

CITY           SKY/WX    TMP DP  RH WIND       PRES   REMARKS
QUINCY         CLEAR     48  39  71 S9        30.25F
GALESBURG*     CLEAR     46  38  74 S6        30.23F
MACOMB*        CLEAR     50  38  65 SW8       30.25F
JACKSONVILLE*  CLEAR     49  39  70 S6        30.26F
$$

ILZ028>032-037-038-041>044-048-051>054-059>061-170600-
CENTRAL ILLINOIS

CITY           SKY/WX    TMP DP  RH WIND       PRES   REMARKS
BLOOMINGTON    CLEAR     44  36  73 SW8       30.26F
DECATUR        CLEAR     46  39  76 SW7       30.28F
PEORIA         CLEAR     46  40  79 CALM      30.24F
LACON*         CLEAR     48  40  73 S3        30.23S
LINCOLN*       CLEAR     48  41  74 S3        30.26F
SPRINGFIELD    CLEAR     51  41  68 S8        30.27F
TAYLORVILLE    NOT AVBL
$$

ILZ033-039-045-046-055>057-062-063-170600-
EAST-CENTRAL ILLINOIS

CITY           SKY/WX    TMP DP  RH WIND       PRES   REMARKS
CHAMPAIGN      CLEAR     43  37  79 S8        30.28F
DANVILLE*      CLEAR     44  37  76 SW7       30.25F
MATTOON        CLEAR     51  40  65 S7        30.28F
PARIS*         CLEAR     45  39  79 SW6       30.30F
$$

ILZ079-100>102-170600-
SOUTHWEST ILLINOIS

CITY           SKY/WX    TMP DP  RH WIND       PRES   REMARKS
BELLEVILLE     CLEAR     43  39  87 CALM      30.30F
CAHOKIA*       CLEAR     45  39  79 CALM      30.30F
SPARTA*        CLEAR     44  40  85 CALM      30.33F
$$

ILZ064>066-069>071-074>076-080>082-084>086-088>090-092>094-170600-
SOUTH-CENTRAL ILLINOIS

CITY           SKY/WX    TMP DP  RH WIND       PRES   REMARKS
CARBONDALE     CLEAR     41  41 100 CALM      30.33S
MARION         CLEAR     44  44  98 CALM      30.33F
MT. VERNON     CLEAR     39  39 100 CALM      30.33S
CENTRALIA*     CLEAR     42  40  93 CALM      30.31F
METROPOLIS*    CLEAR     41  40  96 CALM      30.33F
$$

ILZ067-068-072-073-078-083-087-091-170600-
SOUTHEAST ILLINOIS

CITY           SKY/WX    TMP DP  RH WIND       PRES   REMARKS
LAWRENCEVILLE  CLEAR     47  32  56 S3        30.32F
FLORA*         CLEAR     44  42  91 CALM      30.32S
FAIRFIELD*     CLEAR     44  42  95 CALM      30.32S
HARRISBURG*      N/A     41  40  97 CALM      30.34S FOG
ROBINSON*      CLEAR     43  39  86 CALM      30.32S
CARMI*         CLEAR     40  39  97 CALM      30.32S
$$

ABBREVIATIONS USED IN REMARKS
   TC - TEMPERATURE IN CELSIUS
  WCI - WIND CHILL INDEX
   HX - HEAT INDEX
  VSB - VISIBILITY
$$





USA.gov is the U.S. government's official web portal to all federal, state and local government web resources and services.